FW0816 Weather Reports


Display with metric or nautical units.
time (UTC)temp
F
wind
direction
speed
MPH
gust
MPH
rain 1hr
in
rain 24hr
in
rain mn
in
humidity
%
barometer
mb
20260508033100 42 352 12.0 18.0 0.00 0.52 0.00 96 1003.2
20260508031601 43 333 13.0 19.0 0.00 0.52 0.00 94 1003.0
20260508030059 49 22 0.0 6.0 0.00 0.52 0.00 96 1002.3
20260508024603 49 353 1.0 6.0 0.00 0.52 0.52 96 1002.6
20260508023051 49 352 3.0 8.0 0.00 0.52 0.52 96 1002.5
20260508021551 49 32 4.0 6.0 0.00 0.52 0.52 96 1002.8
20260508014552 49 31 3.0 6.0 0.00 0.52 0.52 96 1002.9
20260508013049 49 38 2.0 7.0 0.00 0.52 0.52 96 1002.8
20260508011552 48 348 3.0 5.0 0.00 0.52 0.52 96 1002.6
20260508010051 47 348 1.0 3.0 0.00 0.52 0.52 96 1003.0
20260508004549 47 348 1.0 6.0 0.00 0.52 0.52 95 1003.1
20260508003049 47 349 2.0 7.0 0.00 0.52 0.52 94 1003.0
20260508001547 49 344 4.0 8.0 0.00 0.52 0.52 93 1003.1
20260508000045 50 41 2.0 5.0 0.00 0.52 0.52 95 1002.7
20260507234546 49 43 1.0 4.0 0.00 0.52 0.52 94 1002.6
20260507233045 48 41 8.0 18.0 0.00 0.52 0.52 94 1002.3
20260507231546 48 335 10.0 21.0 0.00 0.52 0.52 87 1001.9
20260507230043 56 187 5.0 10.0 0.00 0.52 0.52 91 1001.5
20260507224540 56 157 9.0 14.0 0.00 0.52 0.52 91 1001.4
20260507223039 56 157 10.0 15.0 0.00 0.52 0.52 91 1001.4
20260507221538 56 180 10.0 20.0 0.00 0.52 0.52 91 1001.5
20260507220036 56 166 9.0 20.0 0.00 0.52 0.52 92 1001.3
20260507214638 56 194 18.0 26.0 0.00 0.52 0.52 91 1001.3
20260507213036 56 159 11.0 23.0 0.01 0.52 0.52 92 1001.3
20260507211540 55 209 15.0 22.0 0.04 0.52 0.52 95 1001.3
20260507210037 54 134 20.0 25.0 0.09 0.52 0.52 95 1001.3
20260507204635 54 170 17.0 36.0 0.14 0.52 0.52 94 1001.2
20260507203036 55 141 23.0 29.0 0.15 0.51 0.51 94 1000.8
20260507201532 55 162 12.0 22.0 0.16 0.48 0.48 93 1001.7
20260507200026 56 149 19.0 30.0 0.14 0.42 0.42 93 1002.0
20260507194529 56 139 15.0 24.0 0.15 0.38 0.38 93 1003.3
20260507193032 57 147 19.0 31.0 0.21 0.36 0.36 92 1003.3
20260507191524 57 159 18.0 29.0 0.28 0.32 0.32 92 1003.5
20260507190023 57 153 13.0 28.0 0.28 0.28 0.28 93 1003.6
20260507184523 58 178 18.0 33.0 0.23 0.23 0.23 93 1003.6
20260507183039 57 151 20.0 28.0 0.15 0.15 0.15 93 1003.8
20260507181521 57 138 13.0 23.0 0.03 0.03 0.03 91 1004.1
20260507180020 58 149 15.0 27.0 0.00 0.00 0.00 88 1003.9
20260507174519 58 136 20.0 35.0 0.00 0.00 0.00 89 1002.9
20260507173018 58 138 27.0 37.0 0.00 0.00 0.00 84 1002.9
20260507171517 59 151 23.0 40.0 0.00 0.00 0.00 84 1003.0
20260507170019 59 146 27.0 42.0 0.00 0.00 0.00 83 1002.9
20260507164515 59 127 30.0 41.0 0.00 0.00 0.00 84 1003.2
20260507163015 61 145 34.0 43.0 0.00 0.00 0.00 80 1003.4
20260507161514 62 147 31.0 42.0 0.00 0.00 0.00 80 1003.7
20260507160032 62 145 34.0 48.0 0.00 0.00 0.00 79 1003.6
20260507154513 63 137 33.0 45.0 0.00 0.00 0.00 78 1004.1
20260507153009 63 149 29.0 47.0 0.00 0.00 0.00 78 1004.7
20260507151508 63 157 33.0 50.0 0.00 0.00 0.00 79 1004.9
20260507150007 63 144 26.0 42.0 0.00 0.00 0.00 79 1004.9
20260507144504 63 159 29.0 46.0 0.00 0.00 0.00 80 1005.4
20260507143006 62 162 27.0 51.0 0.00 0.00 0.00 81 1005.8
20260507141506 63 161 28.0 50.0 0.00 0.00 0.00 80 1005.6
20260507140002 63 155 27.0 51.0 0.00 0.00 0.00 79 1005.8
20260507134600 63 156 34.0 56.0 0.00 0.00 0.00 80 1005.9
20260507133111 62 151 29.0 50.0 0.00 0.00 0.00 81 1006.0
20260507131557 62 147 31.0 46.0 0.00 0.00 0.00 81 1005.9
20260507130108 62 143 31.0 50.0 0.00 0.00 0.00 82 1006.3
20260507124632 61 150 31.0 40.0 0.00 0.00 0.00 84 1006.3
20260507123052 59 159 28.0 45.0 0.00 0.00 0.00 85 1006.7
20260507121551 59 139 32.0 48.0 0.00 0.00 0.00 85 1007.2
20260507120049 58 148 24.0 37.0 0.00 0.00 0.00 89 1008.0
20260507114605 54 140 27.0 34.0 0.00 0.00 0.00 87 1008.4
20260507113044 55 157 18.0 29.0 0.00 0.00 0.00 92 1008.7
20260507111543 52 144 12.0 26.0 0.00 0.00 0.00 92 1009.8
20260507110045 56 148 20.0 26.0 0.00 0.00 0.00 89 1009.2
20260507104547 54 141 20.0 26.0 0.00 0.00 0.00 93 1009.4
20260507103036 53 138 20.0 28.0 0.00 0.00 0.00 92 1010.2
20260507101533 54 142 25.0 34.0 0.00 0.00 0.00 92 1009.9
20260507100030 55 134 25.0 39.0 0.00 0.00 0.00 90 1009.8
20260507094526 56 139 27.0 35.0 0.00 0.00 0.00 89 1010.2
20260507093034 56 155 22.0 34.0 0.00 0.00 0.00 91 1010.6
20260507091536 57 152 17.0 28.0 0.00 0.00 0.00 91 1010.7
20260507090023 56 140 17.0 27.0 0.00 0.00 0.00 91 1010.6
20260507084524 56 144 13.0 27.0 0.00 0.00 0.00 90 1010.3
20260507083017 55 167 14.0 21.0 0.00 0.00 0.00 89 1010.7
20260507081514 56 163 10.0 21.0 0.00 0.00 0.00 86 1011.1
20260507080012 57 162 13.0 25.0 0.00 0.00 0.00 84 1011.1
20260507074509 58 172 19.0 30.0 0.00 0.00 0.00 83 1011.0
20260507073006 59 151 19.0 28.0 0.00 0.00 0.00 81 1010.9
20260507071504 59 159 20.0 28.0 0.00 0.00 0.00 80 1011.5
20260507070116 60 136 15.0 28.0 0.00 0.00 0.00 79 1011.4
20260507064605 61 164 18.0 26.0 0.00 0.00 0.00 76 1012.0
20260507063100 61 164 18.0 30.0 0.00 0.00 0.00 74 1012.0
20260507061554 62 155 21.0 33.0 0.00 0.00 0.00 70 1012.3
20260507060053 62 161 24.0 42.0 0.00 0.00 0.00 69 1012.2
20260507054554 61 157 18.0 32.0 0.00 0.00 0.00 69 1012.7
20260507053050 61 152 18.0 35.0 0.00 0.00 0.00 69 1012.9
20260507051547 62 173 19.0 32.0 0.00 0.00 0.00 68 1013.3
20260507050044 63 143 17.0 27.0 0.00 0.00 0.00 61 1013.4
20260507044544 63 160 16.0 35.0 0.00 0.00 0.00 60 1013.5
20260507043041 63 131 12.0 30.0 0.00 0.00 0.00 64 1014.1
20260507041539 62 154 16.0 32.0 0.00 0.00 0.00 66 1014.2
20260507040037 63 149 17.0 34.0 0.00 0.00 0.00 65 1014.3
20260507034539 63 176 15.0 39.0 0.00 0.00 0.00 66 1014.0